H1 CPF 2 NER 2022 3 7 9 066 01 glonass133 H2 1403201 9133 40001 2022 3 7 0 0 0 2022 3 10 23 45 0 900 1 1 0 0 0 1 H9 10 0 59645 0.00000 0 -15475371.318 -13497674.256 15146969.065 10 0 59645 900.00000 0 -13633396.325 -12670101.192 17454525.018 10 0 59645 1800.00000 0 -11481050.897 -11913375.477 19423372.309 10 0 59645 2700.00000 0 -9063433.170 -11276763.647 21015281.957 10 0 59645 3600.00000 0 -6435580.141 -10801130.911 22199327.437 10 0 59645 4500.00000 0 -3660416.871 -10517151.118 22952484.446 10 0 59645 5400.00000 0 -806380.617 -10443961.434 23260078.835 10 0 59645 6300.00000 0 2055182.587 -10588318.377 23116074.160 10 0 59645 7200.00000 0 4852741.767 -10944290.956 22523193.260 10 0 59645 8100.00000 0 7517313.245 -11493504.260 21492871.268 10 0 59645 9000.00000 0 9985088.697 -12205923.858 20045040.456 10 0 59645 9900.00000 0 12199850.457 -13041148.720 18207750.447 10 0 59645 10800.00000 0 14115074.223 -13950158.974 16016630.363 10 0 59645 11700.00000 0 15695632.017 -14877445.503 13514202.554 10 0 59645 12600.00000 0 16919024.598 -15763432.073 10749060.536 10 0 59645 13500.00000 0 17776092.206 -16547088.020 7774926.599 10 0 59645 14400.00000 0 18271174.175 -17168621.053 4649607.096 10 0 59645 15300.00000 0 18421711.166 -17572136.017 1433865.842 10 0 59645 16200.00000 0 18257307.342 -17708146.546 -1809762.119 10 0 59645 17100.00000 0 17818292.725 -17535832.497 -5018192.763 10 0 59645 18000.00000 0 17153847.207 -17024946.740 -8129026.657 10 0 59645 18900.00000 0 16319766.400 -16157289.671 -11081769.025 10 0 59645 19800.00000 0 15375964.647 -14927688.134 -13819011.772 10 0 59645 20700.00000 0 14383821.590 -13344436.621 -16287553.669 10 0 59645 21600.00000 0 13403485.155 -11429181.339 -18439436.553 10 0 59645 22500.00000 0 12491245.348 -9216251.366 -20232877.176 10 0 59645 23400.00000 0 11697089.958 -6751464.469 -21633076.691 10 0 59645 24300.00000 0 11062545.196 -4090457.078 -22612892.464 10 0 59645 25200.00000 0 10618891.959 -1296607.743 -23153359.725 10 0 59645 26100.00000 0 10385832.310 1561359.742 -23244053.628 10 0 59645 27000.00000 0 10370661.619 4411994.307 -22883285.368 10 0 59645 27900.00000 0 10567980.506 7183848.455 -22078129.214 10 0 59645 28800.00000 0 10959957.981 9808209.205 -20844280.364 10 0 59645 29700.00000 0 11517134.193 12221716.564 -19205746.697 10 0 59645 30600.00000 0 12199728.544 14368761.768 -17194380.457 10 0 59645 31500.00000 0 12959397.902 16203566.546 -14849258.922 10 0 59645 32400.00000 0 13741370.738 17691858.065 -12215925.834 10 0 59645 33300.00000 0 14486867.306 18812070.921 -9345508.058 10 0 59645 34200.00000 0 15135703.897 19556027.111 -6293724.373 10 0 59645 35100.00000 0 15628971.414 19929066.742 -3119805.425 10 0 59645 36000.00000 0 15911675.275 19949625.055 114654.352 10 0 59645 36900.00000 0 15935225.204 19648274.469 3346890.546 10 0 59645 37800.00000 0 15659669.661 19066272.735 6514185.102 10 0 59645 38700.00000 0 15055580.311 18253678.921 9555081.583 10 0 59645 39600.00000 0 14105506.649 17267116.993 12410575.593 10 0 59645 40500.00000 0 12804938.823 16167281.447 15025257.346 10 0 59645 41400.00000 0 11162737.301 15016290.102 17348384.328 10 0 59645 42300.00000 0 9201010.376 13874995.427 19334863.365 10 0 59645 43200.00000 0 6954443.425 12800367.310 20946123.440 10 0 59645 44100.00000 0 4469106.666 11843057.021 22150862.693 10 0 59645 45000.00000 0 1800789.860 11045244.423 22925655.471 10 0 59645 45900.00000 0 -987068.084 10438858.521 23255407.996 10 0 59645 46800.00000 0 -3825769.829 10044245.839 23133654.005 10 0 59645 47700.00000 0 -6643972.529 9869342.412 22562684.594 10 0 59645 48600.00000 0 -9370415.577 9909384.177 21553509.526 10 0 59645 49500.00000 0 -11936650.873 10147168.125 20125650.275 10 0 59645 50400.00000 0 -14279662.880 10553853.521 18306768.185 10 0 59645 51300.00000 0 -16344270.072 11090269.863 16132134.170 10 0 59645 52200.00000 0 -18085208.217 11708676.853 13643949.450 10 0 59645 53100.00000 0 -19468808.720 12354902.457 10890529.835 10 0 59645 54000.00000 0 -20474202.140 12970768.916 7925368.839 10 0 59645 54900.00000 0 -21093996.617 13496704.085 4806097.555 10 0 59645 55800.00000 0 -21334402.944 13874427.300 1593361.575 10 0 59645 56700.00000 0 -21214801.372 14049595.509 -1650362.865 10 0 59645 57600.00000 0 -20766768.867 13974296.749 -4861989.940 10 0 59645 58500.00000 0 -20032608.436 13609284.496 -7979057.833 10 0 59645 59400.00000 0 -19063443.373 12925857.227 -10940950.060 10 0 59645 60300.00000 0 -17916957.666 11907302.659 -13690079.918 10 0 59645 61200.00000 0 -16654878.787 10549844.640 -16173014.248 10 0 59645 62100.00000 0 -15340309.825 8863051.883 -18341514.231 10 0 59645 63000.00000 0 -14035024.004 6869690.433 -20153472.810 10 0 59645 63900.00000 0 -12796835.932 4605025.477 -21573730.565 10 0 59645 64800.00000 0 -11677160.231 2115601.071 -22574754.608 10 0 59645 65700.00000 0 -10718859.955 -542451.774 -23137167.886 10 0 59645 66600.00000 0 -9954474.669 -3305508.482 -23250119.246 10 0 59645 67500.00000 0 -9404901.819 -6104859.186 -22911487.844 10 0 59645 68400.00000 0 -9078585.790 -8869332.297 -22127918.498 10 0 59645 69300.00000 0 -8971247.754 -11528024.904 -20914687.814 10 0 59645 70200.00000 0 -9066166.646 -14013027.348 -19295403.996 10 0 59645 71100.00000 0 -9334998.588 -16262029.591 -17301546.203 10 0 59645 72000.00000 0 -9739099.638 -18220701.828 -14971852.398 10 0 59645 72900.00000 0 -10231295.602 -19844751.242 -12351567.334 10 0 59645 73800.00000 0 -10758024.048 -21101570.192 -9491564.995 10 0 59645 74700.00000 0 -11261757.945 -21971407.949 -6447362.301 10 0 59645 75600.00000 0 -11683608.568 -22448017.998 -3278042.997 10 0 59645 76500.00000 0 -11965997.650 -22538754.704 -45112.435 10 0 59645 77400.00000 0 -12055285.821 -22264116.092 3188694.482 10 0 59645 78300.00000 0 -11904246.142 -21656752.655 6360629.072 10 0 59645 79200.00000 0 -11474277.965 -20759984.441 9409144.716 10 0 59645 80100.00000 0 -10737267.273 -19625889.177 12275089.049 10 0 59645 81000.00000 0 -9677014.458 -18313042.102 14902849.400 10 0 59645 81900.00000 0 -8290168.600 -16884002.611 17241429.409 10 0 59645 82800.00000 0 -6586628.002 -15402653.298 19245436.028 10 0 59645 83700.00000 0 -4589389.009 -13931502.923 20875958.159 10 0 59645 84600.00000 0 -2333848.043 -12529066.142 22101320.257 10 0 59645 85500.00000 0 133415.333 -11247429.518 22897696.596 10 0 59646 0.00000 0 2756324.871 -10130105.463 23249574.687 10 0 59646 900.00000 0 5471396.328 -9210262.981 23150059.067 10 0 59646 1800.00000 0 8210139.286 -8509410.496 22601009.252 10 0 59646 2700.00000 0 10901678.289 -8036583.590 21613009.538 10 0 59646 3600.00000 0 13475481.947 -7788073.125 20205170.205 10 0 59646 4500.00000 0 15864088.735 -7747704.418 18404763.635 10 0 59646 5400.00000 0 18005716.487 -7887655.877 16246701.560 10 0 59646 6300.00000 0 19846647.286 -8169782.674 13772862.792 10 0 59646 7200.00000 0 21343288.352 -8547389.729 11031283.806 10 0 59646 8100.00000 0 22463822.854 -8967379.100 8075227.358 10 0 59646 9000.00000 0 23189381.572 -9372680.836 4962146.922 10 0 59646 9900.00000 0 23514686.133 -9704864.085 1752567.174 10 0 59646 10800.00000 0 23448136.910 -9906817.240 -1491097.428 10 0 59646 11700.00000 0 23011342.130 -9925382.844 -4705762.404 10 0 59646 12600.00000 0 22238108.306 -9713834.625 -7828906.776 10 0 59646 13500.00000 0 21172935.174 -9234090.700 -10799795.528 10 0 59646 14400.00000 0 19869079.212 -8458568.208 -13560666.403 10 0 59646 15300.00000 0 18386268.082 -7371599.853 -16057857.154 10 0 59646 16200.00000 0 16788163.035 -5970351.608 -18242850.909 10 0 59646 17100.00000 0 15139676.653 -4265201.919 -20073219.124 10 0 59646 18000.00000 0 13504259.180 -2279565.732 -21513443.831 10 0 59646 18900.00000 0 11941267.575 -49169.987 -22535603.589 10 0 59646 19800.00000 0 10503527.501 2379189.783 -23119910.404 10 0 59646 20700.00000 0 9235190.038 4949360.304 -23255087.798 10 0 59646 21600.00000 0 8169972.112 7597938.141 -22938583.457 10 0 59646 22500.00000 0 7329853.331 10256686.855 -22176612.926 10 0 59646 23400.00000 0 6724282.668 12855163.700 -20984034.003 10 0 59646 24300.00000 0 6349926.962 15323447.329 -19384054.588 10 0 59646 25200.00000 0 6190970.560 17594853.831 -17407779.742 10 0 59646 26100.00000 0 6219952.435 19608528.727 -15093606.709 10 0 59646 27000.00000 0 6399104.614 21311807.851 -12486479.469 10 0 59646 27900.00000 0 6682134.809 22662249.460 -9637016.959 10 0 59646 28800.00000 0 7016377.593 23629253.491 -6600531.720 10 0 59646 29700.00000 0 7345222.943 24195201.037 -3435957.753 10 0 59646 30600.00000 0 7610719.306 24356067.075 -204708.236 10 0 59646 31500.00000 0 7756241.008 24121481.353 3030514.714 10 0 59646 32400.00000 0 7729107.054 23514235.474 6206935.124 10 0 59646 33300.00000 0 7483040.356 22569257.311 9262919.518 10 0 59646 34200.00000 0 6980363.180 21332096.143 12139170.761 10 0 59646 35100.00000 0 6193835.635 19856982.325 14779876.328 10 0 59646 36000.00000 0 5108058.991 18204543.018 17133788.799 10 0 59646 36900.00000 0 3720383.915 16439269.701 19155217.768 10 0 59646 37800.00000 0 2041284.352 14626843.449 20804914.268 10 0 59646 38700.00000 0 94180.084 12831429.609 22050830.933 10 0 59646 39600.00000 0 -2085286.001 11113054.723 22868743.487 10 0 59646 40500.00000 0 -4450487.277 9525174.851 23242721.847 10 0 59646 41400.00000 0 -6945519.280 8112536.392 23165441.889 10 0 59646 42300.00000 0 -9507302.524 6909418.335 22638331.827 10 0 59646 43200.00000 0 -12067996.139 5938328.893 21671550.140 10 0 59646 44100.00000 0 -14557623.135 5209210.584 20283795.037 10 0 59646 45000.00000 0 -16906798.916 4719186.762 18501948.522 10 0 59646 45900.00000 0 -19049450.173 4452859.849 16360561.229 10 0 59646 46800.00000 0 -20925411.244 4383148.530 13901187.195 10 0 59646 47700.00000 0 -22482789.658 4472628.437 11171580.844 10 0 59646 48600.00000 0 -23680001.902 4675319.504 8224771.190 10 0 59646 49500.00000 0 -24487394.075 4938844.186 5118030.945 10 0 59646 50400.00000 0 -24888379.100 5206864.773 1911760.636 10 0 59646 51300.00000 0 -24880042.600 5421696.008 -1331690.282 10 0 59646 52200.00000 0 -24473191.714 5526981.430 -4549241.868 10 0 59646 53100.00000 0 -23691844.937 5470319.121 -7678317.105 10 0 59646 54000.00000 0 -22572184.811 5205724.581 -10658065.470 10 0 59646 54900.00000 0 -21161017.857 4695825.283 -13430552.016 10 0 59646 55800.00000 0 -19513807.216 3913693.022 -15941888.069 10 0 59646 56700.00000 0 -17692361.369 2844235.581 -18143281.074 10 0 59646 57600.00000 0 -15762276.641 1485088.094 -19991983.001 10 0 59646 58500.00000 0 -13790241.354 -153034.244 -21452118.882 10 0 59646 59400.00000 0 -11841314.875 -2046537.686 -22495379.785 10 0 59646 60300.00000 0 -9976295.455 -4159697.916 -23101567.303 10 0 59646 61200.00000 0 -8249286.651 -6445923.761 -23258979.648 10 0 59646 62100.00000 0 -6705563.375 -8849484.454 -22964632.566 10 0 59646 63000.00000 0 -5379825.725 -11307629.039 -22224311.405 10 0 59646 63900.00000 0 -4294912.432 -13753010.082 -21052453.828 10 0 59646 64800.00000 0 -3461026.284 -16116311.443 -19471865.776 10 0 59646 65700.00000 0 -2875502.510 -18328971.309 -17513276.266 10 0 59646 66600.00000 0 -2523128.457 -20325887.643 -15214739.682 10 0 59646 67500.00000 0 -2376999.812 -22047993.973 -12620896.928 10 0 59646 68400.00000 0 -2399876.255 -23444598.679 -9782109.518 10 0 59646 69300.00000 0 -2545978.595 -24475390.610 -6753483.210 10 0 59646 70200.00000 0 -2763150.880 -25112027.765 -3593799.871 10 0 59646 71100.00000 0 -2995295.703 -25339242.998 -364378.142 10 0 59646 72000.00000 0 -3184979.449 -25155420.802 2872114.961 10 0 59646 72900.00000 0 -3276097.058 -24572621.385 6052878.471 10 0 59646 73800.00000 0 -3216483.338 -23616051.241 9116194.311 10 0 59646 74700.00000 0 -2960360.212 -22323002.634 12002622.814 10 0 59646 75600.00000 0 -2470516.087 -20741306.541 14656153.755 10 0 59646 76500.00000 0 -1720124.867 -18927363.863 17025290.713 10 0 59646 77400.00000 0 -694127.263 -16943837.268 19064047.806 10 0 59646 78300.00000 0 609884.625 -14857099.976 20732839.861 10 0 59646 79200.00000 0 2181317.740 -12734547.768 21999249.082 10 0 59646 80100.00000 0 3996779.425 -10641886.074 22838653.707 10 0 59646 81000.00000 0 6020822.731 -8640504.783 23234706.792 10 0 59646 81900.00000 0 8207206.113 -6785049.671 23179656.033 10 0 59646 82800.00000 0 10500616.406 -5121291.165 22674498.396 10 0 59646 83700.00000 0 12838784.740 -3684378.688 21728966.373 10 0 59646 84600.00000 0 15154908.542 -2497552.859 20361345.663 10 0 59646 85500.00000 0 17380279.700 -1571368.855 18598127.224 10 0 59647 0.00000 0 19447009.946 -903462.941 16473499.877 10 0 59647 900.00000 0 21290741.293 -478871.172 14028691.343 10 0 59647 1800.00000 0 22853225.679 -270887.301 11311172.728 10 0 59647 2700.00000 0 24084669.515 -242422.065 8373737.560 10 0 59647 3600.00000 0 24945741.833 -347806.994 5273475.738 10 0 59647 4500.00000 0 25409162.402 -534965.507 2070661.286 10 0 59647 5400.00000 0 25460802.562 -747858.814 -1172423.981 10 0 59647 6300.00000 0 25100251.974 -929102.177 -4392707.500 10 0 59647 7200.00000 0 24340827.193 -1022639.727 -7527559.155 10 0 59647 8100.00000 0 23209021.686 -976363.437 -10516015.854 10 0 59647 9000.00000 0 21743420.545 -744564.259 -13299972.829 10 0 59647 9900.00000 0 19993125.852 -290110.637 -15825317.667 10 0 59647 10800.00000 0 18015759.243 413738.764 -18042984.620 10 0 59647 11700.00000 0 15875125.993 1381965.516 -19909908.426 10 0 59647 12600.00000 0 13638639.014 2616923.598 -21389859.140 10 0 59647 13500.00000 0 11374610.826 4108010.477 -22454142.106 10 0 59647 14400.00000 0 9149526.796 5831891.549 -23082150.019 10 0 59647 15300.00000 0 7025413.275 7753269.051 -23261756.998 10 0 59647 16200.00000 0 5057409.917 9826163.804 -22989547.732 10 0 59647 17100.00000 0 3291646.493 11995656.782 -22270877.888 10 0 59647 18000.00000 0 1763511.666 14200018.263 -21119765.118 10 0 59647 18900.00000 0 496384.555 16373136.301 -19558613.099 10 0 59647 19800.00000 0 -499119.506 18447143.831 -17617774.081 10 0 59647 20700.00000 0 -1225358.958 20355135.256 -15334958.422 10 0 59647 21600.00000 0 -1697324.540 22033859.743 -12754502.378 10 0 59647 22500.00000 0 -1941762.073 23426279.201 -9926508.070 10 0 59647 23400.00000 0 -1995797.561 24483884.418 -6905872.124 10 0 59647 24300.00000 0 -1905123.522 25168672.826 -3751221.603 10 0 59647 25200.00000 0 -1721823.816 25454705.342 -523777.668 10 0 59647 26100.00000 0 -1501929.385 25329177.253 2713830.915 10 0 59647 27000.00000 0 -1302808.622 24792958.343 5898781.448 10 0 59647 27900.00000 0 -1180503.020 23860579.697 8969274.555 10 0 59647 28800.00000 0 -1187121.009 22559667.667 11865731.286 10 0 59647 29700.00000 0 -1368400.396 20929848.642 14531946.864 10 0 59647 30600.00000 0 -1761542.737 19021170.265 16916178.830 10 0 59647 31500.00000 0 -2393411.426 16892104.922 18972148.577 10 0 59647 32400.00000 0 -3279170.104 14607218.564 20659937.206 10 0 59647 33300.00000 0 -4421419.496 12234601.704 21946758.669 10 0 59647 34200.00000 0 -5809869.961 9843169.259 22807595.550 10 0 59647 35100.00000 0 -7421564.729 7499941.109 23225685.483 10 0 59647 36000.00000 0 -9221645.872 5267415.941 23192848.971 10 0 59647 36900.00000 0 -11164632.393 3201147.074 22709652.224 10 0 59647 37800.00000 0 -13196158.485 1347620.497 21785401.696 10 0 59647 38700.00000 0 -15255100.744 -257477.193 20437969.967 10 0 59647 39600.00000 0 -17276006.601 -1590529.302 18693455.751 10 0 59647 40500.00000 0 -19191723.493 -2640745.584 16585683.914 10 0 59647 41400.00000 0 -20936119.442 -3410373.789 14155554.373 10 0 59647 42300.00000 0 -22446781.454 -3914357.858 11450251.886 10 0 59647 43200.00000 0 -23667578.658 -4179457.792 8522331.481 10 0 59647 44100.00000 0 -24550982.337 -4242868.854 5428696.968 10 0 59647 45000.00000 0 -25060044.984 -4150399.068 2229492.454 10 0 59647 45900.00000 0 -25169954.472 -3954282.809 -1013071.375 10 0 59647 46800.00000 0 -24869097.250 -3710723.897 -4235932.814 10 0 59647 47700.00000 0 -24159585.351 -3477273.209 -7376412.093 10 0 59647 48600.00000 0 -23057224.589 -3310152.932 -10373436.900 10 0 59647 49500.00000 0 -21590925.071 -3261641.866 -13168735.822 10 0 59647 50400.00000 0 -19801578.766 -3377633.472 -15707975.689 10 0 59647 51300.00000 0 -17740451.467 -3695470.917 -17941820.224 10 0 59647 52200.00000 0 -15467156.788 -4242151.425 -19826889.204 10 0 59647 53100.00000 0 -13047297.443 -5032976.357 -21326599.473 10 0 59647 54000.00000 0 -10549872.605 -6070704.482 -22411871.845 10 0 59647 54900.00000 0 -8044559.678 -7345244.526 -23061690.696 10 0 59647 55800.00000 0 -5598983.725 -8833900.286 -23263506.004 10 0 59647 56700.00000 0 -3276087.829 -10502158.440 -23013470.773 10 0 59647 57600.00000 0 -1131713.141 -12304986.454 -22316509.839 10 0 59647 58500.00000 0 787511.644 -14188586.667 -21186219.235 10 0 59647 59400.00000 0 2445884.766 -16092533.663 -19644598.407 10 0 59647 60300.00000 0 3819879.912 -17952206.096 -17721620.578 10 0 59647 61200.00000 0 4898878.129 -19701411.703 -15454649.609 10 0 59647 62100.00000 0 5685354.240 -21275096.270 -12887714.479 10 0 59647 63000.00000 0 6194511.477 -22612023.578 -10070655.189 10 0 59647 63900.00000 0 6453381.055 -23657314.471 -7058156.483 10 0 59647 64800.00000 0 6499425.805 -24364738.922 -3908687.858 10 0 59647 65700.00000 0 6378707.671 -24698665.157 -683370.293 10 0 59647 66600.00000 0 6143697.147 -24635584.117 2555208.321 10 0 59647 67500.00000 0 5850817.739 -24165145.240 5744206.075 10 0 59647 68400.00000 0 5557829.624 -23290659.954 8821744.690 10 0 59647 69300.00000 0 5321163.387 -22029051.527 11728108.167 10 0 59647 70200.00000 0 5193316.730 -20410253.054 14406899.225 10 0 59647 71100.00000 0 5220424.359 -18476078.362 16806131.196 10 0 59647 72000.00000 0 5440103.862 -16278612.617 18879234.318 10 0 59647 72900.00000 0 5879668.802 -13878189.322 20585957.231 10 0 59647 73800.00000 0 6554784.790 -11341037.436 21893146.577 10 0 59647 74700.00000 0 7468625.760 -8736696.061 22775389.874 10 0 59647 75600.00000 0 8611566.832 -6135303.565 23215509.575 10 0 59647 76500.00000 0 9961427.695 -3604873.088 23204898.895 10 0 59647 77400.00000 0 11484257.582 -1208667.058 22743692.907 10 0 59647 78300.00000 0 13135630.221 997220.948 21840771.379 10 0 59647 79200.00000 0 14862395.895 2965977.138 20513592.909 10 0 59647 80100.00000 0 16604818.407 4661783.966 18787862.925 10 0 59647 81000.00000 0 18299008.479 6061071.251 16697041.330 10 0 59647 81900.00000 0 19879552.390 7153250.344 14281698.493 10 0 59647 82800.00000 0 21282225.966 7940901.165 11588731.460 10 0 59647 83700.00000 0 22446680.128 8439404.954 8670455.036 10 0 59647 84600.00000 0 23318984.903 8676038.834 5583585.034 10 0 59647 85500.00000 0 23853924.390 8688571.045 2388133.520 10 0 59648 0.00000 0 24016945.368 8523416.990 -853761.945 10 0 59648 900.00000 0 23785676.750 8233434.820 -4079053.534 10 0 59648 1800.00000 0 23150954.844 7875455.026 -7225014.015 10 0 59648 2700.00000 0 22117310.891 7507649.433 -10230464.345 10 0 59648 3600.00000 0 20702899.601 7186852.163 -13036968.878 10 0 59648 4500.00000 0 18938871.364 6965946.901 -15589975.956 10 0 59648 5400.00000 0 16868214.384 6891431.911 -17839880.873 10 0 59648 6300.00000 0 14544115.196 7001266.447 -19742990.366 10 0 59648 7200.00000 0 12027906.388 7323090.047 -21262369.824 10 0 59648 8100.00000 0 9386687.331 7872890.215 -22368557.115 10 0 59648 9000.00000 0 6690717.209 8654174.882 -23040129.703 10 0 59648 9900.00000 0 4010688.886 9657684.602 -23264114.633 10 0 59648 10800.00000 0 1414996.689 10861656.737 -23036234.175 10 0 59648 11700.00000 0 -1032888.914 12232630.706 -22360982.972 10 0 59648 12600.00000 0 -3276831.396 13726760.702 -21251535.714 10 0 59648 13500.00000 0 -5270123.956 15291581.141 -19729487.475 10 0 59648 14400.00000 0 -6977185.175 16868151.213 -17824431.893 10 0 59648 15300.00000 0 -8374785.313 18393489.021 -15573385.344 10 0 59648 16200.00000 0 -9452753.698 19803193.681 -13020068.154 10 0 59648 17100.00000 0 -10214139.218 21034145.844 -10214056.467 10 0 59648 18000.00000 0 -10674818.629 22027173.577 -7209821.079 10 0 59648 18900.00000 0 -10862570.524 22729571.977 -4065671.594 10 0 59648 19800.00000 0 -10815655.065 23097370.771 -842626.239 10 0 59648 20700.00000 0 -10580960.220 23097254.615 2396770.725 10 0 59648 21600.00000 0 -10211793.459 22708055.259 5589661.068 10 0 59648 22500.00000 0 -9765412.660 21921752.612 8674090.592 10 0 59648 23400.00000 0 -9300400.848 20743942.267 11590209.277 10 0 59648 24300.00000 0 -8873995.901 19193749.394 14281430.359 10 0 59648 25200.00000 0 -8539488.124 17303191.940 16695525.914 10 0 59648 26100.00000 0 -8343795.615 15116019.162 18785637.851 10 0 59648 27000.00000 0 -8325319.854 12686073.209 20511185.003 10 0 59648 27900.00000 0 -8512172.022 10075241.280 21838649.113 10 0 59648 28800.00000 0 -8920845.119 7351082.854 22742224.750 10 0 59648 29700.00000 0 -9555388.180 4584229.796 23204320.943 10 0 59648 30600.00000 0 -10407118.028 1845666.512 23215904.966 10 0 59648 31500.00000 0 -11454881.525 -795997.657 22776681.607 10 0 59648 32400.00000 0 -12665858.314 -3277151.367 21895104.295 10 0 59648 33300.00000 0 -13996871.510 -5541591.330 20588217.423 10 0 59648 34200.00000 0 -15396152.384 -7542619.904 18881332.356 10 0 59648 35100.00000 0 -16805485.961 -9244743.579 16807542.685 10 0 59648 36000.00000 0 -18162648.252 -10624902.119 14407087.366 10 0 59648 36900.00000 0 -19404033.170 -11673177.525 11726573.407 10 0 59648 37800.00000 0 -20467358.814 -12392953.714 8818072.666 10 0 59648 38700.00000 0 -21294339.152 -12800520.908 5738109.923 10 0 59648 39600.00000 0 -21833208.060 -12924141.978 2546561.943 10 0 59648 40500.00000 0 -22040988.651 -12802620.905 -694510.842 10 0 59648 41400.00000 0 -21885411.246 -12483434.619 -3922076.821 10 0 59648 42300.00000 0 -21346398.163 -12020508.133 -7073365.452 10 0 59648 43200.00000 0 -20417051.954 -11471728.127 -10087094.492 10 0 59648 44100.00000 0 -19104104.487 -10896301.180 -12904667.534 10 0 59648 45000.00000 0 -17427807.423 -10352069.353 -15471317.740 10 0 59648 45900.00000 0 -15421268.176 -9892897.532 -17737175.045 10 0 59648 46800.00000 0 -13129258.841 -9566243.597 -19658235.844 10 0 59648 47700.00000 0 -10606547.898 -9411014.499 -21197216.290 10 0 59648 48600.00000 0 -7915824.258 -9455798.932 -22324272.959 10 0 59648 49500.00000 0 -5125300.119 -9717551.137 -23017577.410 10 0 59648 50400.00000 0 -2306092.377 -10200781.171 -23263734.108 10 0 59648 51300.00000 0 470508.880 -10897285.534 -23058034.302 10 0 59648 52200.00000 0 3135771.826 -11786429.324 -22404541.574 10 0 59648 53100.00000 0 5626141.479 -12835967.952 -21316007.891 10 0 59648 54000.00000 0 7885637.673 -14003373.865 -19813622.163 10 0 59648 54900.00000 0 9867933.903 -15237612.708 -17926596.272 10 0 59648 55800.00000 0 11538031.811 -16481294.448 -15691596.654 10 0 59648 56700.00000 0 12873463.010 -17673109.413 -13152032.255 10 0 59648 57600.00000 0 13864969.570 -18750447.131 -10357212.427 10 0 59648 58500.00000 0 14516636.110 -19652088.125 -7361390.911 10 0 59648 59400.00000 0 14845469.359 -20320855.650 -4222714.198 10 0 59648 60300.00000 0 14880444.078 -20706115.889 -1002094.496 10 0 59648 61200.00000 0 14661056.481 -20766021.342 2237970.798 10 0 59648 62100.00000 0 14235446.954 -20469402.830 5434610.267 10 0 59648 63000.00000 0 13658171.862 -19797230.159 8525796.730 10 0 59648 63900.00000 0 12987718.840 -18743579.580 11451548.827 10 0 59648 64800.00000 0 12283870.747 -17316066.752 14155092.657 10 0 59648 65700.00000 0 11605029.568 -15535726.278 16583961.026 10 0 59648 66600.00000 0 11005613.181 -13436342.010 18691009.097 10 0 59648 67500.00000 0 10533634.692 -11063255.135 20435327.064 10 0 59648 68400.00000 0 10228566.248 -8471698.746 21783032.500 10 0 59648 69300.00000 0 10119577.296 -5724727.269 22707927.338 10 0 59648 70200.00000 0 10224221.488 -2890825.820 23192007.081 10 0 59648 71100.00000 0 10547627.759 -41297.747 23225812.572 10 0 59648 72000.00000 0 11082229.973 2752462.050 22808617.499 10 0 59648 72900.00000 0 11808047.146 5421695.776 21948447.831 10 0 59648 73800.00000 0 12693503.212 7902900.949 20661932.406 10 0 59648 74700.00000 0 13696752.693 10140229.953 18973986.971 10 0 59648 75600.00000 0 14767457.376 12087571.845 16917337.116 10 0 59648 76500.00000 0 15848939.949 13710230.182 14531888.557 10 0 59648 77400.00000 0 16880624.428 14986127.266 11863956.329 10 0 59648 78300.00000 0 17800660.843 15906484.966 8965367.303 10 0 59648 79200.00000 0 18548623.451 16475954.060 5892453.082 10 0 59648 80100.00000 0 19068168.215 16712187.175 2704952.898 10 0 59648 81000.00000 0 19309536.850 16644874.046 -535151.960 10 0 59648 81900.00000 0 19231800.696 16314280.447 -3764849.008 10 0 59648 82800.00000 0 18804748.661 15769353.327 -6921326.384 10 0 59648 83700.00000 0 18010338.578 15065473.240 -9943200.860 10 0 59648 84600.00000 0 16843649.753 14261950.028 -12771717.338 10 0 59648 85500.00000 0 15313295.715 13419368.506 -15351895.691 99